User: anonymous   Login
Location: NJAA Observatory
(40.6819°N, 74.8979°W)
Time: 08:14:48
(UTC-04:00)
Language:

Iridium 56 - Orbit

View from above orbital plane
View from above orbital plane
View from above satellite
View from above satellite

Ground track
Ground track

The orbit data is extracted from the following two-line orbital elements,

1 25170U 98010B   14301.83576523  .00000567  00000-0  19548-3 0  7201
2 25170 086.4050 032.7124 0001793 128.7909 010.7199 14.34212853873823
Epoch (UTC): 28 October 2014 20:03:30
Eccentricity: 0.0001793
inclination: 86.4050°
perigee height: 776 km
apogee height: 779 km
right ascension of ascending node: 32.7124°
argument of perigee: 128.7909°
revolutions per day: 14.34212853
mean anomaly at epoch: 10.7199°
orbit number at epoch: 87382

The dashed part of the orbit path shows where the satellite is in the earth's shadow,  

DLR